CAPE
0 0 0 0 0 0 0 0 0 0 0 0 0 0 0 0 0 0 0 0 0 0 0 0 0 0 0 0 0 0 0 0 0 0 0 0 0 0 0 8 51 49 61 84 439
0 0 0 0 0 0 0 0 0 0 0 0 0 0 0 0 0 0 0 0 0 0 0 0 0 0 0 0 0 0 0 0 0 0 0 0 0 0 0 23 79 205 247 503 613
0 0 0 0 0 0 0 0 0 0 0 0 0 0 0 0 0 0 0 0 0 0 0 0 0 0 0 0 0 0 0 0 0 0 0 0 0 0 0 0 5 195 458 693 653
0 0 0 0 0 0 0 0 0 0 0 0 0 0 0 0 0 0 0 0 0 0 0 0 0 0 0 0 0 0 0 0 0 0 0 0 0 0 0 5 0 43 625 662 697
0 0 0 0 0 0 0 0 0 0 0 0 0 0 0 0 0 0 0 0 0 0 0 0 0 0 0 0 0 0 0 0 0 0 0 0 0 25 477 680 160 63 551 771 672
0 0 0 0 0 0 0 0 0 0 0 0 0 0 0 0 0 0 0 0 0 0 0 0 0 0 0 0 0 0 0 0 0 0 3 28 252 152 842 744 530 669 600 541 638
0 0 0 0 0 0 0 0 0 0 0 0 0 0 0 0 0 0 0 0 0 0 0 0 0 0 0 0 0 0 0 0 0 0 0 305 534 662 334 311 369 224 465 573 770
0 0 0 0 0 0 0 0 0 0 0 0 0 0 0 0 0 0 0 0 0 0 0 0 0 0 0 0 0 0 0 0 0 0 8 415 680 376 251 603 319 254 223 798 1365
0 0 0 0 0 0 0 0 0 0 0 0 0 0 0 0 0 0 0 0 0 0 0 0 0 0 0 0 0 0 0 0 0 0 10 428 322 50 50 592 762 885 942 1679 1986
0 0 0 0 0 0 0 0 0 0 0 0 0 0 0 0 0 0 0 0 0 0 0 0 0 0 0 0 0 0 0 0 0 27 107 85 64 10 111 388 966 1233 1250 1469 1622
0 0 0 0 0 0 0 0 0 0 0 0 0 0 0 0 0 0 0 0 0 0 0 0 0 0 0 0 0 0 0 0 2 15 54 9 0 0 76 2 1202 1247 1562 1241 467
0 0 0 0 0 0 0 0 0 0 0 0 0 0 0 0 0 0 0 0 0 0 0 0 0 0 0 0 0 0 0 0 0 0 36 6 5 78 120 11 321 583 1139 895 94
0 0 0 0 0 0 0 0 0 0 0 0 0 0 0 0 0 0 0 0 0 0 0 0 0 0 0 0 0 0 0 0 0 1 7 0 26 23 161 194 139 27 81 740 159
0 0 0 0 0 0 0 0 0 0 0 0 0 0 0 0 0 0 0 0 0 0 0 0 0 0 0 0 0 0 0 0 0 0 0 0 0 0 251 553 463 45 45 468 114
0 0 0 0 0 0 0 0 0 0 0 0 0 0 0 0 0 0 0 0 0 0 0 0 0 0 0 0 0 0 0 0 0 0 0 0 0 0 267 400 373 399 428 256 47
0 0 0 0 0 0 0 0 0 0 0 0 0 0 0 0 0 0 0 0 0 0 0 0 0 0 0 0 0 0 0 0 0 0 0 0 0 0 41 279 21 269 53 16 0
0 0 0 0 0 0 0 0 0 0 0 0 0 0 0 0 0 0 0 0 0 0 0 0 0 0 0 0 0 0 0 0 0 0 0 0 0 2 3 15 41 229 1 0 1
0 0 0 0 0 0 0 0 0 0 0 0 0 0 0 0 0 0 0 0 0 0 0 0 0 0 0 0 0 0 0 0 0 0 0 0 0 0 0 0 1 24 0 1 0
0 0 0 0 0 0 0 0 0 0 0 0 0 0 0 0 0 0 0 0 0 0 0 0 0 0 0 0 0 0 0 0 0 0 0 0 0 0 0 0 2 0 0 0 0
0 0 0 0 0 0 0 0 0 0 0 0 0 0 0 0 0 0 0 0 0 0 0 0 0 0 0 0 0 0 0 0 0 0 0 0 0 0 0 0 0 0 0 0 0
0 0 0 0 0 0 0 0 0 0 0 0 0 0 0 0 0 0 0 0 0 0 0 0 0 0 0 0 0 0 0 0 0 0 0 0 0 0 1 0 0 0 0 0 0
0 0 0 0 0 0 0 0 0 0 0 0 0 0 0 0 0 0 0 0 0 0 0 0 0 0 0 0 0 0 0 0 0 0 0 0 0 0 0 0 0 0 0 0 0
0 0 0 0 0 0 0 0 0 0 0 0 0 0 0 0 0 0 0 0 0 0 0 0 0 0 0 0 0 0 0 0 0 0 0 0 0 0 0 0 0 0 0 0 0
0 0 0 0 0 0 0 0 0 0 0 0 0 0 0 0 0 0 0 0 0 0 0 0 0 0 0 0 0 0 0 0 0 0 0 0 0 0 0 0 0 0 0 0 0
0 0 0 0 0 0 0 0 0 0 0 0 0 0 0 0 0 0 0 0 0 0 0 0 0 0 0 0 0 0 0 0 0 0 0 0 0 0 0 0 0 0 0 0 0
0 0 0 0 0 0 0 0 0 0 0 0 0 0 0 0 0 0 0 0 0 0 0 0 0 0 0 0 0 0 0 0 0 0 0 0 0 0 0 0 0 0 0 0 0
0 0 0 0 0 0 0 0 0 0 0 0 0 0 0 0 0 0 0 0 0 0 0 0 0 0 0 0 0 0 0 0 0 0 0 0 0 0 0 0 0 0 0 0 0
CIN
0 0 0 0 0 0 0 0 0 0 0 0 0 0 0 0 0 0 0 0 0 0 0 0 0 0 0 0 0 0 0 0 0 0 0 0 0 0 0 -83 -150 -168 -155 -101 -302
0 0 0 0 0 0 0 0 0 0 0 0 0 0 0 0 0 0 0 0 0 0 0 0 0 0 0 0 0 0 0 0 0 0 0 0 0 0 0 -67 -129 -112 -168 -249 -323
0 0 0 0 0 0 0 0 0 0 0 0 0 0 0 0 0 0 0 0 0 0 0 0 0 0 0 0 0 0 0 0 0 0 0 0 0 0 0 0 -8 -67 -131 -228 -261
0 0 0 0 0 0 0 0 0 0 0 0 0 0 0 0 0 0 0 0 0 0 0 0 0 0 0 0 0 0 0 0 0 0 0 0 0 0 0 -42 0 -125 -121 -187 -229
0 0 0 0 0 0 0 0 0 0 0 0 0 0 0 0 0 0 0 0 0 0 0 0 0 0 0 0 0 0 0 0 0 0 0 0 0 -87 -203 -304 -238 -111 -162 -165 -238
0 0 0 0 0 0 0 0 0 0 0 0 0 0 0 0 0 0 0 0 0 0 0 0 0 0 0 0 0 0 0 0 0 0 -55 -212 -224 -223 -290 -333 -299 -284 -262 -270 -217
0 0 0 0 0 0 0 0 0 0 0 0 0 0 0 0 0 0 0 0 0 0 0 0 0 0 0 0 0 0 0 0 0 0 -5 -96 -179 -219 -349 -392 -359 -397 -359 -266 -193
0 0 0 0 0 0 0 0 0 0 0 0 0 0 0 0 0 0 0 0 0 0 0 0 0 0 0 0 0 0 0 0 0 0 -40 -101 -122 -235 -330 -208 -307 -366 -401 -302 -182
0 0 0 0 0 0 0 0 0 0 0 0 0 0 0 0 0 0 0 0 0 0 0 0 0 0 0 0 0 0 0 0 0 0 -148 -103 -185 -338 -456 -250 -245 -274 -277 -178 -126
0 0 0 0 0 0 0 0 0 0 0 0 0 0 0 0 0 0 0 0 0 0 0 0 0 0 0 0 0 0 0 0 0 -152 -155 -208 -245 -369 -333 -299 -249 -244 -227 -179 -135
0 0 0 0 0 0 0 0 0 0 0 0 0 0 0 0 0 0 0 0 0 0 0 0 0 0 0 0 0 0 0 0 -93 -195 -192 -256 0 0 -310 -204 -170 -230 -202 -201 -302
0 0 0 0 0 0 0 0 0 0 0 0 0 0 0 0 0 0 0 0 0 0 0 0 0 0 0 0 0 0 0 0 0 0 -176 -229 -111 -355 -331 -259 -330 -200 -202 -245 -463
0 0 0 0 0 0 0 0 0 0 0 0 0 0 0 0 0 0 0 0 0 0 0 0 0 0 0 0 0 0 0 0 0 -74 -229 0 -229 -314 -360 -319 -351 -297 -253 -216 -343
0 0 0 0 0 0 0 0 0 0 0 0 0 0 0 0 0 0 0 0 0 0 0 0 0 0 0 0 0 0 0 0 0 0 0 0 0 0 -289 -223 -270 -292 -203 -99 -272
0 0 0 0 0 0 0 0 0 0 0 0 0 0 0 0 0 0 0 0 0 0 0 0 0 0 0 0 0 0 0 0 0 0 0 0 0 0 -181 -154 -148 -146 -172 -157 -249
0 0 0 0 0 0 0 0 0 0 0 0 0 0 0 0 0 0 0 0 0 0 0 0 0 0 0 0 0 0 0 0 0 0 0 0 0 0 -163 -84 -190 -147 -200 -170 0
0 0 0 0 0 0 0 0 0 0 0 0 0 0 0 0 0 0 0 0 0 0 0 0 0 0 0 0 0 0 0 0 0 0 0 0 0 -56 -54 -133 -176 -105 -53 0 -35
0 0 0 0 0 0 0 0 0 0 0 0 0 0 0 0 0 0 0 0 0 0 0 0 0 0 0 0 0 0 0 0 0 0 0 0 0 0 0 0 -15 -94 0 -88 0
0 0 0 0 0 0 0 0 0 0 0 0 0 0 0 0 0 0 0 0 0 0 0 0 0 0 0 0 0 0 0 0 0 0 0 0 0 0 0 0 -53 0 0 0 0
0 0 0 0 0 0 0 0 0 0 0 0 0 0 0 0 0 0 0 0 0 0 0 0 0 0 0 0 0 0 0 0 0 0 0 0 0 0 -6 0 0 0 0 0 0
0 0 0 0 0 0 0 0 0 0 0 0 0 0 0 0 0 0 0 0 0 0 0 0 0 0 0 0 0 0 0 0 0 0 0 0 0 0 -16 0 0 0 0 0 0
0 0 0 0 0 0 0 0 0 0 0 0 0 0 0 0 0 0 0 0 0 0 0 0 0 0 0 0 0 0 0 0 0 0 0 0 0 0 0 0 0 0 0 0 0
0 0 0 0 0 0 0 0 0 0 0 0 0 0 0 0 0 0 0 0 0 0 0 0 0 0 0 0 0 0 0 0 0 0 0 0 0 0 0 0 0 0 0 0 0
0 0 0 0 0 0 0 0 0 0 0 0 0 0 0 0 0 0 0 0 0 0 0 0 0 0 0 0 0 0 0 0 0 0 0 0 0 0 0 0 0 0 0 0 0
0 0 0 0 0 0 0 0 0 0 0 0 0 0 0 0 0 0 0 0 0 0 0 0 0 0 0 0 0 0 0 0 0 0 0 0 0 0 0 0 0 0 0 0 0
0 0 0 0 0 0 0 0 0 0 0 0 0 0 0 0 0 0 0 0 0 0 0 0 0 0 0 0 0 0 0 0 0 0 0 0 0 0 0 0 0 0 0 0 0
0 0 0 0 0 0 0 0 0 0 0 0 0 0 0 0 0 0 0 0 0 0 0 0 0 0 0 0 0 0 0 0 0 0 0 0 0 0 0 0 0 0 0 0 0
Wind_Speed
29 29 29 29 28 28 28 27 26 25 24 23 23 21 20 20 19 9 15 16 16 18 17 17 16 11 17 15 14 13 12 12 14 14 6 11 23 19 14 12 12 11 13 11 15
28 29 30 29 28 28 28 27 26 25 24 23 22 20 20 18 16 16 16 17 18 18 10 16 17 12 16 16 14 12 10 11 12 8 13 12 14 17 14 11 11 12 14 14 14
28 28 30 30 29 28 28 27 26 25 23 23 21 20 19 17 14 14 14 18 18 15 17 17 17 18 16 15 13 11 10 8 11 11 8 12 25 17 23 18 14 10 10 11 12
29 29 29 30 30 29 28 27 26 24 22 22 21 20 19 15 12 15 14 14 18 17 17 14 16 17 15 15 13 10 8 6 6 18 19 22 24 24 24 26 8 6 8 8 9
28 30 29 30 30 29 29 27 26 24 22 21 20 19 15 14 15 16 12 12 18 13 13 16 18 17 15 15 16 12 15 16 13 3 22 23 24 18 25 24 24 13 8 7 10
27 28 30 30 30 29 29 28 25 23 22 20 18 17 15 13 15 12 12 13 14 13 14 15 16 15 13 8 16 18 22 22 21 21 18 24 23 17 23 23 26 23 20 17 15
27 28 29 30 30 30 29 27 26 24 21 19 17 14 13 14 14 12 12 15 12 12 14 12 15 14 14 11 15 16 19 19 20 17 13 20 23 21 21 25 27 27 28 24 21
28 29 30 30 30 30 28 27 25 21 19 16 14 13 12 15 16 11 11 18 17 14 13 14 12 13 14 16 19 18 18 14 19 17 16 17 20 20 24 26 27 29 29 28 28
29 30 31 30 30 29 28 25 19 15 12 11 13 14 13 17 13 15 11 18 17 15 13 11 15 15 15 16 18 21 20 14 15 16 12 15 18 19 22 24 26 27 28 28 28
29 31 32 31 29 28 27 20 15 13 14 14 16 14 10 14 14 14 9 16 2 16 16 15 14 14 16 17 20 20 23 15 15 16 18 18 18 19 21 22 25 27 29 27 26
29 29 31 31 29 25 21 16 17 17 17 15 15 14 17 18 16 13 12 12 12 15 16 18 15 13 14 14 13 15 17 15 16 15 17 18 19 19 21 21 24 23 25 24 22
30 29 30 30 27 21 15 12 15 21 20 20 20 16 20 12 14 14 11 11 13 15 16 17 14 13 15 15 15 18 18 14 15 13 15 15 19 21 24 20 20 20 18 20 21
30 27 28 30 23 17 16 15 19 18 17 19 14 14 12 9 13 14 9 11 13 14 17 13 13 17 16 18 17 15 17 15 13 12 13 15 21 22 20 22 19 18 14 19 12
27 27 27 28 17 20 18 20 21 17 15 13 11 13 9 10 14 13 8 12 13 15 16 14 15 16 18 18 16 15 18 22 11 11 14 12 13 23 22 20 21 19 16 9 7
28 28 27 22 22 21 20 23 20 13 14 10 11 11 9 10 13 12 12 12 12 14 14 15 17 15 20 19 15 12 19 22 20 12 14 18 17 16 17 18 17 17 17 12 14
28 28 27 22 23 22 23 22 14 14 16 11 9 8 8 12 13 12 10 12 14 13 13 14 15 15 17 19 23 18 17 19 19 15 16 19 16 17 14 13 12 14 16 15 17
29 29 28 24 22 21 21 16 14 17 11 12 10 8 8 10 10 9 8 12 10 10 16 17 14 15 16 19 21 21 20 17 16 18 16 17 19 17 15 11 13 14 15 15 19
30 30 24 26 24 21 17 15 18 16 16 13 8 6 6 6 9 8 9 9 13 14 15 14 13 18 20 19 18 21 21 18 15 17 15 21 18 17 16 19 14 14 15 16 18
29 24 23 20 18 15 16 17 18 14 16 13 7 8 10 10 9 8 8 11 15 16 13 13 14 17 19 19 17 18 21 18 18 19 16 18 17 16 19 19 15 15 17 17 20
24 22 20 17 14 15 17 20 16 15 15 11 13 12 8 4 4 10 11 14 14 16 14 14 13 17 16 19 20 18 17 17 20 16 13 17 17 18 16 18 16 16 15 18 24
22 19 18 15 17 17 20 19 18 18 14 12 14 13 10 5 6 10 12 13 15 16 17 16 15 16 16 17 19 20 20 21 19 18 17 17 19 20 17 18 20 21 19 22 26
21 20 18 18 21 19 21 18 18 16 13 13 14 13 9 7 10 12 11 14 19 17 17 18 14 10 12 15 19 20 21 21 20 17 19 19 20 19 21 18 19 21 22 24 26
23 23 19 19 21 22 22 21 19 15 14 15 13 10 7 7 9 10 11 15 17 16 17 15 16 11 8 10 16 20 25 22 19 19 22 21 19 20 20 21 22 23 26 27 29
22 24 22 21 20 20 21 19 18 15 13 13 11 9 8 9 11 10 9 15 18 18 18 14 15 13 8 9 13 21 25 21 18 19 19 20 17 19 20 22 24 27 27 28 31
22 23 20 21 23 23 20 19 19 18 16 14 14 12 11 11 8 11 10 13 18 19 18 15 14 15 15 12 18 21 24 24 21 16 20 16 17 19 19 23 27 28 31 34 36
25 22 20 21 23 22 21 20 19 19 17 17 12 14 10 12 16 8 11 15 16 19 18 18 14 14 13 18 18 20 23 23 23 22 20 19 22 19 18 22 27 32 34 36 37
24 21 20 22 20 21 20 18 17 17 15 13 3 4 5 8 6 9 12 13 14 17 17 16 15 14 11 19 11 19 22 21 21 21 18 20 19 19 18 21 27 33 35 37 38
Wind_Direction
305 304 297 299 295 292 293 290 288 289 287 282 285 277 277 275 269 324 181 152 116 109 159 169 59 282 101 93 91 71 70 60 47 56 147 243 346 39 82 90 73 61 55 55 71
297 303 302 301 295 291 291 289 286 286 284 283 284 277 277 276 268 208 195 174 165 161 111 39 41 312 65 95 96 89 72 65 67 105 234 238 32 22 48 54 37 38 36 64 80
301 298 301 303 293 290 289 286 284 283 281 285 280 278 280 271 271 242 220 147 140 70 74 80 49 34 48 74 84 74 126 137 205 209 195 17 297 13 316 2 20 43 73 81 90
300 302 297 299 293 289 286 284 282 279 277 285 280 280 281 302 333 233 227 48 94 90 97 83 337 28 71 56 66 83 91 93 186 341 357 338 295 320 338 322 26 64 102 100 94
303 303 296 295 292 286 285 283 280 273 272 280 275 286 302 311 276 251 313 23 122 85 342 11 5 21 55 42 26 57 15 357 28 279 342 346 339 19 353 342 353 39 62 66 29
298 298 296 295 291 286 284 281 276 267 267 271 267 297 302 323 298 341 48 51 82 39 18 28 21 47 74 94 8 314 287 319 305 336 20 14 3 21 357 352 15 8 2 15 19
300 298 294 297 291 285 284 281 274 262 255 250 270 326 342 312 300 334 52 261 30 56 23 65 36 76 58 150 32 10 314 300 349 5 31 21 13 26 16 31 26 18 23 30 32
300 299 298 297 292 286 285 282 272 253 244 262 309 349 344 302 274 327 329 234 196 156 135 179 101 67 42 0 358 7 5 0 1 20 15 39 35 29 38 35 31 30 27 33 31
298 300 301 296 291 290 288 278 261 280 296 332 308 352 334 278 319 248 92 192 245 250 121 100 19 17 17 54 53 35 41 38 20 351 27 17 52 54 3 29 37 30 20 17 13
296 300 303 296 292 294 286 262 281 281 293 288 278 325 324 323 341 336 20 149 344 314 348 30 35 65 48 55 29 38 27 33 24 10 35 35 31 10 5 13 26 22 11 9 7
299 297 298 297 297 288 293 281 276 279 301 291 305 314 273 273 285 344 346 347 342 336 346 333 40 68 74 58 43 36 31 39 44 44 20 20 20 7 357 12 14 0 7 0 352
301 295 298 301 293 286 302 300 302 273 280 282 271 290 213 336 332 315 355 358 344 323 346 352 44 114 56 38 53 42 29 31 8 12 17 30 17 12 10 22 23 1 358 350 345
302 293 300 300 285 294 290 307 287 292 288 270 294 310 327 16 338 321 30 357 323 329 331 29 80 37 58 36 39 35 15 26 40 19 20 35 19 10 21 357 4 1 357 333 304
295 290 295 299 277 280 274 284 289 280 287 292 308 311 339 338 316 319 352 318 319 335 339 41 53 61 35 31 35 35 15 355 35 25 4 6 6 356 358 357 14 35 24 176 124
290 292 294 297 270 269 268 283 278 280 274 302 311 339 342 334 320 327 307 307 320 331 357 18 24 35 24 36 40 41 349 351 360 19 22 7 1 14 24 28 41 56 52 60 51
284 287 287 278 273 261 275 276 269 276 275 304 347 330 324 303 305 315 315 304 310 319 356 19 42 55 50 32 14 12 17 2 16 30 9 11 10 356 27 49 46 31 40 48 33
281 279 275 269 260 276 279 265 260 265 293 291 312 319 326 310 305 325 324 316 326 343 337 342 23 46 42 22 10 6 9 27 28 17 24 16 6 7 30 37 34 41 36 36 26
282 281 273 259 265 271 274 255 254 269 271 300 326 323 340 348 318 325 331 319 320 336 350 4 22 10 10 33 31 9 21 37 42 27 31 9 9 10 22 12 36 41 36 28 20
284 276 270 264 263 269 259 248 255 277 288 276 307 301 296 310 319 324 317 311 314 320 359 9 18 14 13 9 13 17 18 34 33 24 31 28 29 29 17 18 33 30 18 19 17
277 270 259 260 263 267 251 250 265 270 277 287 272 291 315 0 6 301 301 298 312 328 359 8 15 14 25 352 341 6 25 30 17 32 41 28 26 15 19 22 25 15 16 13 7
271 263 261 256 254 253 241 251 254 262 285 290 281 287 301 321 333 299 301 308 313 329 355 357 351 3 11 359 10 357 4 6 15 16 20 14 11 15 19 10 7 11 15 9 6
261 253 260 254 248 249 242 251 262 270 291 291 289 295 295 305 289 289 304 306 294 329 342 349 1 25 35 7 341 1 2 4 4 11 7 7 2 20 14 21 20 14 12 6 5
248 242 252 251 244 244 246 252 262 275 284 275 288 294 300 296 295 285 307 313 325 339 342 0 355 20 58 22 359 359 343 359 5 5 354 354 358 11 18 15 11 5 1 359 358
248 241 243 245 249 248 246 252 256 282 283 281 284 293 297 293 283 282 314 324 329 345 352 11 7 17 45 38 14 350 344 358 6 358 1 0 11 13 9 4 1 358 356 354 351
246 243 249 247 248 245 250 254 257 257 276 283 272 274 272 281 294 289 322 333 333 342 357 2 5 12 12 32 11 359 352 359 7 18 1 14 12 13 12 3 357 355 351 346 344
238 242 250 249 248 243 247 250 256 264 269 267 267 269 278 277 275 300 313 322 331 341 360 357 9 10 30 9 6 3 6 13 12 18 23 21 7 12 10 3 357 352 349 347 347
241 250 249 246 250 240 246 253 259 266 273 267 279 295 316 303 333 330 338 351 352 350 358 8 10 15 32 348 20 357 4 17 19 16 19 5 11 13 5 357 352 350 349 347 346